This is the latest recevied weather packets stored in our database for station/object K4IR. If no packets are shown the sender has not sent any weather packets the latest 10 day(s).
| Time | Temp. | Humidity | Pressure | Rain* | Wind** | Luminosity | Snow |
|---|---|---|---|---|---|---|---|
| 1787841872 | 27.22° C | 84% | 1017.6 hPa | 0 mm | - | 235 W/m² | - |
| 1787841272 | 27.22° C | 84% | 1017.5 hPa | 0 mm | - | 235 W/m² | - |
| 1787840669 | 27.22° C | 85% | 1017.4 hPa | 0 mm | - | 279 W/m² | - |
| 1787840065 | 26.11° C | 91% | 1017.4 hPa | 0 mm | - | 220 W/m² | - |
| 1787839460 | 25.56° C | 95% | 1017.2 hPa | 0 mm | - | 219 W/m² | - |
| 1787838859 | 25° C | 98% | 1017.3 hPa | 0 mm | - | 264 W/m² | - |
| 1787838258 | 25° C | 98% | 1017.3 hPa | 0 mm | - | 200 W/m² | - |
| 1787837657 | 25° C | 99% | 1017.2 hPa | 0 mm | - | 180 W/m² | - |
| 1787837053 | 25° C | 99% | 1017.3 hPa | 0 mm | - | 214 W/m² | - |
| 1787836453 | 24.44° C | 99% | 1017.3 hPa | 0 mm | - | 153 W/m² | - |
| 1787835854 | 24.44° C | 99% | 1017.3 hPa | 0 mm | - | 195 W/m² | - |
| 1787835250 | 23.89° C | 99% | 1017.1 hPa | 0 mm | - | 198 W/m² | - |
| 1787834650 | 23.89° C | 99% | 1017.2 hPa | 0 mm | - | 147 W/m² | - |
| 1787834047 | 23.33° C | 99% | 1016.9 hPa | 0 mm | - | 109 W/m² | - |
| 1787833443 | 23.33° C | 99% | 1016.9 hPa | 0 mm | - | 93 W/m² | - |
| 1787832840 | 22.78° C | 99% | 1017.2 hPa | 0 mm | - | 76 W/m² | - |
| 1787832234 | 22.78° C | 99% | 1017.2 hPa | 0 mm | - | 60 W/m² | - |
| 1787831634 | 22.78° C | 99% | 1017.3 hPa | 0 mm | - | 32 W/m² | - |
| 1787831029 | 22.78° C | 99% | 1017 hPa | 0 mm | - | 27 W/m² | - |
| 1787830427 | 22.78° C | 99% | 1016.9 hPa | 0.51 mm | - | 28 W/m² | - |
| 1787829828 | 22.78° C | 99% | 1016.7 hPa | 1.27 mm | - | 12 W/m² | - |
| 1787829223 | 22.78° C | 99% | 1016.9 hPa | 0 mm | - | 7 W/m² | - |
| 1787828620 | 22.78° C | 99% | 1016.7 hPa | 2.29 mm | - | 4 W/m² | - |
| 1787828019 | 22.78° C | 99% | 1016.8 hPa | 1.78 mm | - | 1 W/m² | - |
| 1787827416 | 22.78° C | 99% | 1016.4 hPa | 0 mm | - | 0 W/m² | - |
* Rain latest hour (hover to see other rain measurements)
** Current wind speed in m/s (hover to see current wind gust speed)